Regional Weather Roundup
Issued by NWS Grand Forks, ND

Home | Current Version | Previous Version | Text Only | Print | Product List | Glossary On
Versions: 1 2 3 4 5 6 7 8 9 10 11 12 13 14 15 16 17 18 19 20 21 22 23 24 25 26 27 28 29 30 31 32 33 34 35 36 37 38 39 40 41 42 43 44 45 46 47 48 49 50
000
ASUS43 KFGF 280331
RWRFGF
PRAIRIE TO PINES  WEATHER ROUNDUP
NATIONAL WEATHER SERVICE EASTERN NORTH DAKOTA/GRAND FORKS ND
1000 PM CDT MON JUL 27 2015

 **SATELLITE DATA USED TO AUGMENT SKY COVER AT AUTOMATED STATIONS**
 *****  WEATHER ACROSS EASTERN NORTH DAKOTA  *****

CITY           SKY/WX    TMP DP  RH WIND       PRES   REMARKS
GRAND FORKS    PTCLDY    79  72  79 SE10      29.74R
GRAND FRKS AFB CLEAR     78  73  85 S8        29.75R
GRAND FRKS NWS   N/A     79 N/A N/A SE12        N/A
DEVILS LAKE    PTCLDY    79  68  69 SE15      29.70S
FARGO          CLEAR     81  71  71 SE13G18   29.76R
WAHPETON ARPT  CLEAR     77  70  78 SE9       29.80R
$$

 ***** WEATHER ACROSS CENTRAL AND WESTERN NORTH DAKOTA  *****

CITY           SKY/WX    TMP DP  RH WIND       PRES   REMARKS
BISMARCK       CLOUDY    83  71  67 S17       29.69R
MINOT          CLOUDY    81  69  67 SE14      29.59F
JAMESTOWN      PTCLDY    79  74  84 SE18G25   29.72R
MINOT AFB      CLOUDY    79  73  81 SE15      29.57F
GARRISON         N/A     79  71  76 SE12      29.60F
WILLISTON      LGT RAIN  67  63  87 NW9       29.57R
DICKINSON      CLOUDY    75  54  47 S25G38    29.61R
HETTINGER      CLOUDY    68  58  70 SE20G28   29.69R
$$

 *****  OTHER AIRPORT OBSERVATIONS IN OUR AREA  *****

CITY           SKY/WX    TMP DP  RH WIND       PRES   REMARKS
WALHALLA       FAIR      75  75 100 MISG      29.74F
GRAFTON AIRPOR FAIR      75  75 100 E8        29.76R
VALLEY CITY AR MOCLDY    79  79 100 SE13G21   29.75R
CANDO          CLOUDY    75  72  88 SE12      29.72R
CAVALIER APRT  FAIR      75  72  88 E6        29.74F
GWINNER          N/A     79  75  89 SE14      29.77S
SHEYENNE NWR     N/A     78  73  84 SE9       29.95
ROLLA          CLOUDY    73  73 100 SE14G20   29.72F
 ***** THE ABOVE OBSERVATIONS ARE NON NWS ARE NOT QUALITY
       CONTROLLED AND MAY MIS-REPORT RAIN FOR SNOW...
$$

  *****  WEATHER ACROSS NORTHERN MINNESOTA  *****

CITY           SKY/WX    TMP DP  RH WIND       PRES   REMARKS
FLAG ISLAND    CLEAR     81  73  78 SE9       29.83S
WARROAD        CLEAR     77  72  83 SE7       29.85R
ROSEAU         CLEAR     75  70  83 E6        29.83R
HALLOCK        CLEAR     75  72  88 E9        29.77R
THF RVR FALLS  CLEAR     75  70  83 E8        29.81R
BAUDETTE       CLEAR     76  66  71 SE7       29.86R
WASKISH        CLEAR     73  68  83 SE5       29.87S
CROOKSTON      CLEAR     77  72  83 SE7       29.78R
STEPHEN NDAWN    N/A     75  72  88 SE6         N/A
GREENBUSH NDAW   N/A     75  72  88 E5          N/A
$$
  *****  WEATHER ACROSS CENTRAL AND WEST MINNESOTA  *****

CITY           SKY/WX    TMP DP  RH WIND       PRES   REMARKS
FOSSTON        CLEAR     73  66  78 CALM      29.84R
BEMIDJI        PTCLDY    76  70  81 SE13      29.87R
PARK RAPIDS    CLEAR     79  70  74 SE9       29.86R
ELBOW LAKE     FAIR      76  72  87 SE9       29.83R
WADENA         CLEAR     75  70  83 SE8       29.87R
DETROIT LAKES  CLEAR     79  70  73 SE14      29.85R
MOORHEAD       CLEAR     79  72  78 SE8       29.78R
FERGUS FALLS   CLEAR     79  72  78 SE12      29.81R
MORRIS MN      CLEAR     77  73  88 SE10      29.83R
STAPLES        CLEAR     75  70  83 SE6       29.88R
$$
  *****  WEATHER ELSEWHERE ACROSS MINNESOTA  *****

CITY           SKY/WX    TMP DP  RH WIND       PRES   REMARKS
DULUTH         PTCLDY    73  63  70 SE6       29.96R
INTRNTL FALLS  CLEAR     73  66  78 SE5       29.89R
ELY            CLEAR     72  59  64 SE6       29.96S
CLOQUET        PTCLDY    73  64  73 E5        29.95S
WHEATON        CLEAR     73  70  88 SE13      29.81R
BRAINERD       CLEAR     76  70  82 SE6       29.89R
HIBBING        CLEAR     70  64  81 SE5       29.94R
ALEXANDRIA     CLEAR     76  72  87 SE12      29.87R
SAINT CLOUD    CLEAR     77  72  84 SE6       29.87R
MINNEAPOLIS    PTCLDY    80  71  74 SE10      29.91R
$$

  *****  WEATHER ACROSS SOUTH DAKOTA  *****

CITY           SKY/WX    TMP DP  RH WIND       PRES   REMARKS
SIOUX FALLS    PTCLDY    80  73  79 S16G23    29.81R
BROOKINGS      CLEAR     77  72  83 SE10      29.85R
WATERTOWN      CLEAR     77  70  79 SE7       29.81R
HURON          CLEAR     80  75  84 SE10      29.74R
SISSETON         N/A     78  71  79 S16G23    29.77R
ABERDEEN       CLEAR     80  71  74 SE10      29.73R
MITCHELL       CLEAR     81  71  71 SE9       29.75R
PIERRE         PTCLDY    84  69  60 SE12      29.64S
MOBRIDGE       CLOUDY    80  71  74 W18G26    29.72R
RAPID CITY     CLOUDY    66  63  90 NW13      29.70R
$$

  *****  SOME WEATHER IN NEARBY STATES *****

CITY           SKY/WX    TMP DP  RH WIND       PRES   REMARKS
GLASGOW MT     LGT RAIN  59  54  83 NW32G45   29.67R
GREAT FALLS MT LGT RAIN  50  48  93 SW13      29.97F
CHEYENNE WY    PTCLDY    78  35  21 W14       29.94R
SCOTTSBLUFF NE MOCLDY    73  64  73 VRB3      29.74S
OMAHA NE       PTCLDY    78  71  79 SE14      29.85R
DES MOINES IA  PTCLDY    74  68  81 S8        29.91R
DAVENPORT IA   CLOUDY    76  72  87 E5        29.97R
CHICAGO IL     MOCLDY    76  65  68 E7        30.01R
EAU CLAIRE WI  CLEAR     78  68  71 SE5       29.95R
LA CROSSE WI   CLEAR     77  70  79 SE5       29.95R
$$

  *****  SOME NATIONAL WEATHER *****

CITY           SKY/WX    TMP DP  RH WIND       PRES   REMARKS
LA GUARDIA NY  MOCLDY    79  67  66 SW6       30.01S
RALEIGH NC     PTCLDY    80  70  71 SE6       30.02R
ATLANTA GA     MOCLDY    84  70  62 N7        29.99R
NEW ORLEANS LA PTCLDY    84  73  69 S8        29.95R HX  90
OKLAHOMA CITY  PTCLDY    81  72  74 S8        29.90R
ALBUQUERQUE NM CLOUDY    86  49  27 S9        30.05R
SALT LAKE CITY PTCLDY    71  41  33 N9        30.07R
LOS ANGELES CA MOCLDY    68  64  88 W10       29.89R
BOISE ID       CLEAR     70  31  23 NW9       30.11R
SEATTLE WA     MOCLDY    70  49  47 NW5       30.22S
$$

*** WEATHER ACROSS MANITOBA...SASKATCHEWAN AND ONTARIO ***
                ***ONTARIO***

CITY           SKY/WX    TMP DP  RH WIND       PRES   REMARKS
GERALDTON      PTCLDY    73  64  73 S5        29.95R
THUNDER BAY    CLEAR     66  63  88 E3        29.96R
SIOUX LOOKOUT  PTCLDY    66  64  94 CALM      29.91R
TORONTO        CLEAR     79  59  50 NW8       30.01R
BIG TROUT LK   CLEAR     68  57  68 NW5       29.86R
PICKLE LAKE    NOT AVBL
DRYDEN         CLEAR     79  63  57 S3        29.91R
KENORA         PTCLDY    79  64  61 SE7       29.88S
$$
                *** MANITOBA***

CITY           SKY/WX    TMP DP  RH WIND       PRES   REMARKS
BRANDON        CLOUDY    77  70  78 E14G22    29.71F THUNDER
DAUPHIN        CLOUDY    70  61  73 E12G20    29.75F
ISLAND LAKE    CLOUDY    72  61  68 CALM      29.87S
PILOT MOUND      N/A     73  70  88 E9          N/A
THE PAS        PTCLDY    64  55  72 NW2       29.84F
THOMPSON       MOCLDY    66  57  72 CALM      29.85R
WINNIPEG       PTCLDY    79  72  78 SE9       29.78S
LYNN LAKE      PTCLDY    66  54  63 S3        29.82F
CHURCHILL      PTCLDY    63  59  88 NE5       29.74S
GILLAM         MOCLDY    70  57  64 SW3       29.82S
$$
                ***SASKATCHEWAN***

CITY           SKY/WX    TMP DP  RH WIND       PRES   REMARKS
ESTEVAN        CLOUDY    75  70  83 E14G26    29.56
KINDERSLEY     LGT RAIN  59  57  94 N10       29.85F
LLOYDMINSTER   CLOUDY    63  55  77 N3        29.92S
PRINCE ALBERT  MOCLDY    63  59  88 N6        29.83F
REGINA         TSTM      61  59  94 NE25G35   29.59F
YORKTON        LGT RAIN  61  59  94 NE8       29.69F
N. BATTLEFORD  CLOUDY    59  57  94 N3        29.91R
LA RONGE       MOCLDY    68  55  64 SW3       29.85S
SASKATOON      LGT RAIN  61  61 100 N10       29.83S
SWIFT CURRENT  LGT RAIN  59 N/A N/A NW17G24   29.76F
$$
NOTE: THESE ARE AUTOMATED STATIONS WITH LIMITED QUALITY CONTROL
      "FAIR" INDICATES FEW OR NO CLOUDS BELOW 12,000 FEET WITH NO
      SIGNIFICANT WEATHER AND/OR OBSTRUCTIONS TO VISIBILITY.
      SKY/WX - SKY CONDITION AND SIGNIFICANT WEATHER.
      TMP - AIR TEMPERATURE.    DP   - DEWPOINT TEMPERATURE.
      RH  - RELATIVE HUMIDITY.  PRES - PRESSURE.
      HX  - HEAT INDEX.         WCI  - WIND CHILL INDEX.
$



USA.gov is the U.S. government's official web portal to all federal, state and local government web resources and services.